Time,TemperatureF,DewpointF,PressureIn,WindDirection,WindDirectionDegrees,WindSpeedMPH,WindSpeedGustMPH,Humidity,HourlyPrecipIn,Conditions,Clouds,dailyrainin,SoftwareType,DateUTC
2013-02-10 00:00:00,15.4,11.0,30.16,WNW,292,6.1,12.1,73,0.00,,,0.00,Rainwise IP-100,2013-02-10 05:00:00,
2013-02-10 00:05:00,15.4,11.0,30.16,NW,315,5.1,11.9,73,0.00,,,0.00,Rainwise IP-100,2013-02-10 05:05:00,
2013-02-10 00:10:00,15.3,8.0,30.17,NNW,337,5.8,8.6,72,0.00,,,0.00,Rainwise IP-100,2013-02-10 05:10:00,
2013-02-10 00:15:00,15.4,8.0,30.17,WNW,292,5.6,11.7,72,0.00,,,0.00,Rainwise IP-100,2013-02-10 05:15:00,
2013-02-10 00:20:00,15.2,8.0,30.17,WNW,292,1.6,8.2,72,0.00,,,0.00,Rainwise IP-100,2013-02-10 05:20:00,
2013-02-10 00:25:00,14.9,8.0,30.16,NW,315,7.0,11.9,72,0.00,,,0.00,Rainwise IP-100,2013-02-10 05:25:00,
2013-02-10 00:30:00,14.8,11.0,30.17,NW,315,4.0,10.0,73,0.00,,,0.00,Rainwise IP-100,2013-02-10 05:30:00,
2013-02-10 00:35:00,14.8,11.0,30.17,WNW,292,3.0,12.8,73,0.00,,,0.00,Rainwise IP-100,2013-02-10 05:35:00,
2013-02-10 00:40:00,14.9,11.0,30.17,NNW,337,4.9,10.7,73,0.00,,,0.00,Rainwise IP-100,2013-02-10 05:40:00,
2013-02-10 00:45:00,15.0,8.0,30.17,NW,315,2.3,12.1,72,0.00,,,0.00,Rainwise IP-100,2013-02-10 05:45:00,
2013-02-10 00:50:00,14.9,8.0,30.17,NW,315,6.8,9.1,72,0.00,,,0.00,Rainwise IP-100,2013-02-10 05:50:00,
2013-02-10 00:55:00,14.9,8.0,30.18,NW,315,1.6,7.7,72,0.00,,,0.00,Rainwise IP-100,2013-02-10 05:55:00,
2013-02-10 01:00:00,14.9,8.0,30.18,NNW,337,2.3,11.7,72,0.00,,,0.00,Rainwise IP-100,2013-02-10 06:00:00,
2013-02-10 01:05:00,14.8,8.0,30.18,West,270,0.0,9.8,72,0.00,,,0.00,Rainwise IP-100,2013-02-10 06:05:00,
2013-02-10 01:07:00,14.9,8.0,30.18,NW,315,2.6,10.7,72,0.00,,,0.00,Rainwise IP-100,2013-02-10 06:07:00,
2013-02-10 01:12:00,14.9,8.0,30.18,NNW,337,0.0,11.4,72,0.00,,,0.00,Rainwise IP-100,2013-02-10 06:12:00,
2013-02-10 01:17:00,14.8,8.0,30.18,NNW,337,4.7,9.3,72,0.00,,,0.00,Rainwise IP-100,2013-02-10 06:17:00,
2013-02-10 01:22:00,14.9,8.0,30.19,WNW,292,0.0,15.6,71,0.00,,,0.00,Rainwise IP-100,2013-02-10 06:22:00,
2013-02-10 01:27:00,15.1,8.0,30.19,NNW,337,7.7,14.5,70,0.00,,,0.00,Rainwise IP-100,2013-02-10 06:27:00,
2013-02-10 01:32:00,15.1,8.0,30.19,North,360,3.5,14.0,70,0.00,,,0.00,Rainwise IP-100,2013-02-10 06:32:00,
2013-02-10 01:37:00,15.0,8.0,30.20,NW,315,4.2,12.6,70,0.00,,,0.00,Rainwise IP-100,2013-02-10 06:37:00,
2013-02-10 01:42:00,15.0,8.0,30.19,NW,315,1.6,10.5,70,0.00,,,0.00,Rainwise IP-100,2013-02-10 06:42:00,
2013-02-10 01:47:00,15.0,8.0,30.19,NW,315,10.5,12.1,70,0.00,,,0.00,Rainwise IP-100,2013-02-10 06:47:00,
2013-02-10 01:52:00,14.9,8.0,30.20,NNE,22,7.7,11.7,70,0.00,,,0.00,Rainwise IP-100,2013-02-10 06:52:00,
2013-02-10 01:57:00,14.9,8.0,30.20,NW,315,5.1,15.9,70,0.00,,,0.00,Rainwise IP-100,2013-02-10 06:57:00,
2013-02-10 02:03:00,14.7,8.0,30.20,WSW,247,7.9,7.9,70,0.00,,,0.00,Rainwise IP-100,2013-02-10 07:03:00,
2013-02-10 02:08:00,14.6,8.0,30.20,West,270,4.9,9.1,71,0.00,,,0.00,Rainwise IP-100,2013-02-10 07:08:00,
2013-02-10 02:13:00,14.7,8.0,30.20,NW,315,4.0,11.0,70,0.00,,,0.00,Rainwise IP-100,2013-02-10 07:13:00,
2013-02-10 02:18:00,14.7,8.0,30.21,NW,315,1.6,10.5,70,0.00,,,0.00,Rainwise IP-100,2013-02-10 07:18:00,
2013-02-10 02:22:00,14.6,8.0,30.21,NNW,337,6.3,10.5,70,0.00,,,0.00,Rainwise IP-100,2013-02-10 07:22:00,
2013-02-10 02:27:00,14.7,8.0,30.20,NW,315,5.1,8.2,70,0.00,,,0.00,Rainwise IP-100,2013-02-10 07:27:00,
2013-02-10 02:32:00,14.7,8.0,30.20,NW,315,0.0,12.1,70,0.00,,,0.00,Rainwise IP-100,2013-02-10 07:32:00,
2013-02-10 02:37:00,14.6,8.0,30.21,NNW,337,3.7,8.6,70,0.00,,,0.00,Rainwise IP-100,2013-02-10 07:37:00,
2013-02-10 02:42:00,14.4,8.0,30.21,WNW,292,0.0,12.4,70,0.00,,,0.00,Rainwise IP-100,2013-02-10 07:42:00,
2013-02-10 02:47:00,14.4,8.0,30.21,WNW,292,7.2,8.9,70,0.00,,,0.00,Rainwise IP-100,2013-02-10 07:47:00,
2013-02-10 02:52:00,14.6,8.0,30.21,NNW,337,3.0,11.2,70,0.00,,,0.00,Rainwise IP-100,2013-02-10 07:52:00,
2013-02-10 02:57:00,14.7,8.0,30.21,NNW,337,1.4,9.6,70,0.00,,,0.00,Rainwise IP-100,2013-02-10 07:57:00,
2013-02-10 03:02:00,14.6,8.0,30.21,WNW,292,1.9,9.8,69,0.00,,,0.00,Rainwise IP-100,2013-02-10 08:02:00,
2013-02-10 03:07:00,14.6,8.0,30.21,NW,315,5.1,7.5,69,0.00,,,0.00,Rainwise IP-100,2013-02-10 08:07:00,
2013-02-10 03:12:00,14.6,8.0,30.22,NW,315,7.5,10.5,69,0.00,,,0.00,Rainwise IP-100,2013-02-10 08:12:00,
2013-02-10 03:17:00,14.6,8.0,30.22,NW,315,6.3,7.7,69,0.00,,,0.00,Rainwise IP-100,2013-02-10 08:17:00,
2013-02-10 03:22:00,14.6,8.0,30.22,NW,315,5.8,8.4,69,0.00,,,0.00,Rainwise IP-100,2013-02-10 08:22:00,
2013-02-10 03:27:00,14.6,8.0,30.22,WNW,292,4.7,11.7,69,0.00,,,0.00,Rainwise IP-100,2013-02-10 08:27:00,
2013-02-10 03:32:00,14.6,8.0,30.22,North,360,3.0,11.9,69,0.00,,,0.00,Rainwise IP-100,2013-02-10 08:32:00,
2013-02-10 03:37:00,14.5,8.0,30.23,NW,315,2.3,9.1,69,0.00,,,0.00,Rainwise IP-100,2013-02-10 08:37:00,
2013-02-10 03:42:00,14.5,8.0,30.23,WNW,292,1.9,10.3,69,0.00,,,0.00,Rainwise IP-100,2013-02-10 08:42:00,
2013-02-10 03:47:00,14.6,8.0,30.24,NW,315,4.0,7.7,69,0.00,,,0.00,Rainwise IP-100,2013-02-10 08:47:00,
2013-02-10 03:52:00,14.6,8.0,30.23,NW,315,9.8,10.0,69,0.00,,,0.00,Rainwise IP-100,2013-02-10 08:52:00,
2013-02-10 03:57:00,14.9,8.0,30.23,West,270,2.3,13.8,68,0.00,,,0.00,Rainwise IP-100,2013-02-10 08:57:00,
2013-02-10 04:02:00,15.1,8.0,30.23,NNW,337,3.5,10.3,68,0.00,,,0.00,Rainwise IP-100,2013-02-10 09:02:00,
2013-02-10 04:07:00,15.1,8.0,30.23,NW,315,6.1,9.6,68,0.00,,,0.00,Rainwise IP-100,2013-02-10 09:07:00,
2013-02-10 04:12:00,15.1,8.0,30.24,NW,315,3.7,8.9,68,0.00,,,0.00,Rainwise IP-100,2013-02-10 09:12:00,
2013-02-10 04:17:00,15.2,8.0,30.24,NW,315,7.5,11.2,68,0.00,,,0.00,Rainwise IP-100,2013-02-10 09:17:00,
2013-02-10 04:22:00,15.3,8.0,30.24,NNW,337,7.5,15.4,67,0.00,,,0.00,Rainwise IP-100,2013-02-10 09:22:00,
2013-02-10 04:27:00,15.4,8.0,30.25,NW,315,1.6,10.7,67,0.00,,,0.00,Rainwise IP-100,2013-02-10 09:27:00,
2013-02-10 04:32:00,15.4,8.0,30.24,NW,315,4.0,7.2,67,0.00,,,0.00,Rainwise IP-100,2013-02-10 09:32:00,
2013-02-10 04:37:00,15.3,8.0,30.25,NNW,337,4.7,8.6,67,0.00,,,0.00,Rainwise IP-100,2013-02-10 09:37:00,
2013-02-10 04:42:00,15.1,8.0,30.25,West,270,3.5,9.6,67,0.00,,,0.00,Rainwise IP-100,2013-02-10 09:42:00,
2013-02-10 04:47:00,15.2,8.0,30.25,WNW,292,0.0,9.1,67,0.00,,,0.00,Rainwise IP-100,2013-02-10 09:47:00,
2013-02-10 04:52:00,15.2,8.0,30.26,NNW,337,7.7,8.6,67,0.00,,,0.00,Rainwise IP-100,2013-02-10 09:52:00,
2013-02-10 04:57:00,15.1,8.0,30.26,WSW,247,5.1,9.3,67,0.00,,,0.00,Rainwise IP-100,2013-02-10 09:57:00,
2013-02-10 05:02:00,15.0,8.0,30.26,NW,315,4.7,8.2,67,0.00,,,0.00,Rainwise IP-100,2013-02-10 10:02:00,
2013-02-10 05:07:00,14.9,8.0,30.26,NW,315,1.4,6.5,68,0.00,,,0.00,Rainwise IP-100,2013-02-10 10:07:00,
2013-02-10 05:12:00,14.9,8.0,30.26,WSW,247,4.9,11.7,68,0.00,,,0.00,Rainwise IP-100,2013-02-10 10:12:00,
2013-02-10 05:17:00,14.9,8.0,30.27,WNW,292,3.0,9.1,68,0.00,,,0.00,Rainwise IP-100,2013-02-10 10:17:00,
2013-02-10 05:22:00,15.1,8.0,30.28,WNW,292,7.0,10.3,68,0.00,,,0.00,Rainwise IP-100,2013-02-10 10:22:00,
2013-02-10 05:27:00,15.1,8.0,30.27,NW,315,0.0,9.3,68,0.00,,,0.00,Rainwise IP-100,2013-02-10 10:27:00,
2013-02-10 05:32:00,15.0,8.0,30.28,West,270,0.0,9.8,67,0.00,,,0.00,Rainwise IP-100,2013-02-10 10:32:00,
2013-02-10 05:37:00,14.8,8.0,30.28,WNW,292,2.8,8.2,67,0.00,,,0.00,Rainwise IP-100,2013-02-10 10:37:00,
2013-02-10 05:42:00,14.7,8.0,30.28,NW,315,3.5,6.3,67,0.00,,,0.00,Rainwise IP-100,2013-02-10 10:42:00,
2013-02-10 05:47:00,14.6,8.0,30.28,WNW,292,7.7,9.8,67,0.00,,,0.00,Rainwise IP-100,2013-02-10 10:47:00,
2013-02-10 05:52:00,14.6,8.0,30.29,WNW,292,3.3,10.3,67,0.00,,,0.00,Rainwise IP-100,2013-02-10 10:52:00,
2013-02-10 05:57:00,14.7,8.0,30.29,WNW,292,3.0,10.3,66,0.00,,,0.00,Rainwise IP-100,2013-02-10 10:57:00,
2013-02-10 06:02:00,14.6,8.0,30.29,WNW,292,5.6,9.1,66,0.00,,,0.00,Rainwise IP-100,2013-02-10 11:02:00,
2013-02-10 06:07:00,14.5,8.0,30.29,NW,315,0.0,9.1,66,0.00,,,0.00,Rainwise IP-100,2013-02-10 11:07:00,
2013-02-10 06:12:00,14.4,4.0,30.29,NNW,337,3.5,6.5,66,0.00,,,0.00,Rainwise IP-100,2013-02-10 11:12:00,
2013-02-10 06:17:00,14.2,4.0,30.29,WNW,292,1.6,7.5,67,0.00,,,0.00,Rainwise IP-100,2013-02-10 11:17:00,
2013-02-10 06:22:00,13.8,4.0,30.29,NW,315,1.9,5.8,67,0.00,,,0.00,Rainwise IP-100,2013-02-10 11:22:00,
2013-02-10 06:27:00,13.8,4.0,30.30,NNW,337,1.9,8.4,68,0.00,,,0.00,Rainwise IP-100,2013-02-10 11:27:00,
2013-02-10 06:32:00,13.8,4.0,30.30,NW,315,2.3,7.0,67,0.00,,,0.00,Rainwise IP-100,2013-02-10 11:32:00,
2013-02-10 06:37:00,13.7,4.0,30.30,NNW,337,3.3,5.8,68,0.00,,,0.00,Rainwise IP-100,2013-02-10 11:37:00,
2013-02-10 06:42:00,13.7,4.0,30.30,NNW,337,4.2,7.0,68,0.00,,,0.00,Rainwise IP-100,2013-02-10 11:42:00,
2013-02-10 06:47:00,13.9,4.0,30.31,WNW,292,1.4,6.8,67,0.00,,,0.00,Rainwise IP-100,2013-02-10 11:47:00,
2013-02-10 06:52:00,13.9,4.0,30.31,West,270,4.2,6.3,67,0.00,,,0.00,Rainwise IP-100,2013-02-10 11:52:00,
2013-02-10 06:57:00,13.8,4.0,30.32,WNW,292,1.9,7.0,67,0.00,,,0.00,Rainwise IP-100,2013-02-10 11:57:00,
2013-02-10 07:02:00,13.8,4.0,30.32,WNW,292,1.6,7.0,67,0.00,,,0.00,Rainwise IP-100,2013-02-10 12:02:00,
2013-02-10 07:07:00,13.8,4.0,30.32,WNW,292,0.0,5.1,67,0.00,,,0.00,Rainwise IP-100,2013-02-10 12:07:00,
2013-02-10 07:12:00,13.7,4.0,30.32,West,270,2.1,7.7,67,0.00,,,0.00,Rainwise IP-100,2013-02-10 12:12:00,
2013-02-10 07:17:00,13.4,4.0,30.33,NW,315,4.7,5.6,68,0.00,,,0.00,Rainwise IP-100,2013-02-10 12:17:00,
2013-02-10 07:22:00,13.5,4.0,30.32,WSW,247,1.9,6.1,68,0.00,,,0.00,Rainwise IP-100,2013-02-10 12:22:00,
2013-02-10 07:27:00,13.7,8.0,30.33,NNW,337,4.9,9.6,69,0.00,,,0.00,Rainwise IP-100,2013-02-10 12:27:00,
2013-02-10 07:32:00,14.1,4.0,30.33,WNW,292,2.6,9.1,68,0.00,,,0.00,Rainwise IP-100,2013-02-10 12:32:00,
2013-02-10 07:37:00,14.5,8.0,30.33,NNW,337,4.0,8.6,67,0.00,,,0.00,Rainwise IP-100,2013-02-10 12:37:00,
2013-02-10 07:42:00,14.6,8.0,30.33,NW,315,1.9,7.0,66,0.00,,,0.00,Rainwise IP-100,2013-02-10 12:42:00,
2013-02-10 07:47:00,14.8,8.0,30.34,NW,315,1.4,8.2,66,0.00,,,0.00,Rainwise IP-100,2013-02-10 12:47:00,
2013-02-10 07:52:00,15.0,8.0,30.34,WNW,292,3.5,9.8,66,0.00,,,0.00,Rainwise IP-100,2013-02-10 12:52:00,
2013-02-10 07:57:00,15.4,8.0,30.34,NW,315,0.0,11.9,66,0.00,,,0.00,Rainwise IP-100,2013-02-10 12:57:00,
2013-02-10 08:02:00,15.9,8.0,30.35,NW,315,3.5,4.2,65,0.00,,,0.00,Rainwise IP-100,2013-02-10 13:02:00,
2013-02-10 08:07:00,16.4,8.0,30.35,NNW,337,4.4,6.1,65,0.00,,,0.00,Rainwise IP-100,2013-02-10 13:07:00,
2013-02-10 08:12:00,16.9,8.0,30.35,NNW,337,6.1,7.5,64,0.00,,,0.00,Rainwise IP-100,2013-02-10 13:12:00,
2013-02-10 08:17:00,17.2,8.0,30.35,NW,315,4.9,10.0,63,0.00,,,0.00,Rainwise IP-100,2013-02-10 13:17:00,
2013-02-10 08:22:00,17.5,8.0,30.36,NNW,337,3.5,7.5,63,0.00,,,0.00,Rainwise IP-100,2013-02-10 13:22:00,
2013-02-10 08:27:00,17.8,8.0,30.36,NNW,337,3.3,7.0,63,0.00,,,0.00,Rainwise IP-100,2013-02-10 13:27:00,
2013-02-10 08:32:00,18.1,8.0,30.36,NW,315,4.2,9.3,62,0.00,,,0.00,Rainwise IP-100,2013-02-10 13:32:00,
2013-02-10 08:37:00,18.4,8.0,30.36,NW,315,6.1,12.1,61,0.00,,,0.00,Rainwise IP-100,2013-02-10 13:37:00,
2013-02-10 08:42:00,18.8,11.0,30.36,NNW,337,5.4,10.3,60,0.00,,,0.00,Rainwise IP-100,2013-02-10 13:42:00,
2013-02-10 08:47:00,19.1,8.0,30.36,North,360,6.5,12.6,59,0.00,,,0.00,Rainwise IP-100,2013-02-10 13:47:00,
2013-02-10 08:52:00,19.5,8.0,30.36,NNE,22,8.2,10.5,59,0.00,,,0.00,Rainwise IP-100,2013-02-10 13:52:00,
2013-02-10 08:57:00,19.9,8.0,30.36,NW,315,4.2,12.4,58,0.00,,,0.00,Rainwise IP-100,2013-02-10 13:57:00,
2013-02-10 09:02:00,20.3,8.0,30.36,NNW,337,3.5,10.5,58,0.00,,,0.00,Rainwise IP-100,2013-02-10 14:02:00,
2013-02-10 09:07:00,20.5,8.0,30.36,NNW,337,1.4,12.6,58,0.00,,,0.00,Rainwise IP-100,2013-02-10 14:07:00,
2013-02-10 09:12:00,20.6,8.0,30.36,NW,315,5.1,11.9,57,0.00,,,0.00,Rainwise IP-100,2013-02-10 14:12:00,
2013-02-10 09:17:00,21.0,8.0,30.36,NW,315,3.5,11.2,56,0.00,,,0.00,Rainwise IP-100,2013-02-10 14:17:00,
2013-02-10 09:22:00,21.4,8.0,30.36,WNW,292,3.0,8.2,56,0.00,,,0.00,Rainwise IP-100,2013-02-10 14:22:00,
2013-02-10 09:27:00,21.6,11.0,30.36,NNW,337,7.5,11.4,55,0.00,,,0.00,Rainwise IP-100,2013-02-10 14:27:00,
2013-02-10 09:32:00,21.6,8.0,30.36,NNW,337,4.4,11.2,54,0.00,,,0.00,Rainwise IP-100,2013-02-10 14:32:00,
2013-02-10 09:37:00,21.6,8.0,30.36,NNW,337,5.8,9.6,54,0.00,,,0.00,Rainwise IP-100,2013-02-10 14:37:00,
2013-02-10 09:42:00,21.6,8.0,30.37,NNW,337,4.0,11.9,54,0.00,,,0.00,Rainwise IP-100,2013-02-10 14:42:00,
2013-02-10 09:47:00,21.8,8.0,30.37,NNW,337,4.7,10.3,54,0.00,,,0.00,Rainwise IP-100,2013-02-10 14:47:00,
2013-02-10 09:52:00,22.2,11.0,30.37,WNW,292,9.1,9.1,55,0.00,,,0.00,Rainwise IP-100,2013-02-10 14:52:00,
2013-02-10 09:57:00,22.3,8.0,30.37,WNW,292,3.3,12.4,54,0.00,,,0.00,Rainwise IP-100,2013-02-10 14:57:00,
2013-02-10 10:02:00,22.3,8.0,30.37,North,360,7.5,12.4,53,0.00,,,0.00,Rainwise IP-100,2013-02-10 15:02:00,
2013-02-10 10:07:00,22.7,8.0,30.37,NNW,337,3.7,9.3,54,0.00,,,0.00,Rainwise IP-100,2013-02-10 15:07:00,
2013-02-10 10:12:00,23.4,8.0,30.38,NNW,337,5.4,9.1,54,0.00,,,0.00,Rainwise IP-100,2013-02-10 15:12:00,
2013-02-10 10:17:00,23.8,11.0,30.37,NE,45,2.6,12.8,55,0.00,,,0.00,Rainwise IP-100,2013-02-10 15:17:00,
2013-02-10 10:22:00,24.0,11.0,30.37,North,360,3.5,9.6,54,0.00,,,0.00,Rainwise IP-100,2013-02-10 15:22:00,
2013-02-10 10:27:00,24.4,11.0,30.37,NNE,22,4.4,8.9,54,0.00,,,0.00,Rainwise IP-100,2013-02-10 15:27:00,
2013-02-10 10:32:00,25.2,14.0,30.37,ENE,67,4.0,8.9,56,0.00,,,0.00,Rainwise IP-100,2013-02-10 15:32:00,
2013-02-10 10:37:00,26.1,14.0,30.37,North,360,4.0,4.9,57,0.00,,,0.00,Rainwise IP-100,2013-02-10 15:37:00,
2013-02-10 10:42:00,26.4,14.0,30.37,North,360,4.0,11.7,56,0.00,,,0.00,Rainwise IP-100,2013-02-10 15:42:00,
2013-02-10 10:47:00,26.0,14.0,30.37,NNW,337,6.1,9.6,55,0.00,,,0.00,Rainwise IP-100,2013-02-10 15:47:00,
2013-02-10 10:52:00,26.0,14.0,30.37,North,360,2.1,10.3,55,0.00,,,0.00,Rainwise IP-100,2013-02-10 15:52:00,
2013-02-10 10:57:00,26.7,14.0,30.37,NNW,337,4.4,6.8,55,0.00,,,0.00,Rainwise IP-100,2013-02-10 15:57:00,
2013-02-10 11:02:00,26.7,14.0,30.37,NNW,337,6.3,7.2,54,0.00,,,0.00,Rainwise IP-100,2013-02-10 16:02:00,
2013-02-10 11:07:00,26.0,11.0,30.37,North,360,5.1,11.0,52,0.00,,,0.00,Rainwise IP-100,2013-02-10 16:07:00,
2013-02-10 11:12:00,26.5,14.0,30.37,NNW,337,0.0,7.7,53,0.00,,,0.00,Rainwise IP-100,2013-02-10 16:12:00,
2013-02-10 11:17:00,27.5,14.0,30.36,North,360,7.9,7.9,54,0.00,,,0.00,Rainwise IP-100,2013-02-10 16:17:00,
2013-02-10 11:22:00,27.7,14.0,30.36,NW,315,4.2,11.4,54,0.00,,,0.00,Rainwise IP-100,2013-02-10 16:22:00,
2013-02-10 11:27:00,27.3,14.0,30.37,NNW,337,2.8,10.0,53,0.00,,,0.00,Rainwise IP-100,2013-02-10 16:27:00,
2013-02-10 11:32:00,27.5,14.0,30.37,North,360,7.0,7.5,52,0.00,,,0.00,Rainwise IP-100,2013-02-10 16:32:00,
2013-02-10 11:37:00,27.9,14.0,30.37,WNW,292,2.3,8.2,53,0.00,,,0.00,Rainwise IP-100,2013-02-10 16:37:00,
2013-02-10 11:42:00,28.0,14.0,30.37,NW,315,4.9,9.3,52,0.00,,,0.00,Rainwise IP-100,2013-02-10 16:42:00,
2013-02-10 11:47:00,28.0,14.0,30.37,NNW,337,4.9,7.9,51,0.00,,,0.00,Rainwise IP-100,2013-02-10 16:47:00,
2013-02-10 11:52:00,28.3,14.0,30.37,WNW,292,1.2,8.2,51,0.00,,,0.00,Rainwise IP-100,2013-02-10 16:52:00,
2013-02-10 11:57:00,28.6,14.0,30.37,NW,315,3.7,10.0,51,0.00,,,0.00,Rainwise IP-100,2013-02-10 16:57:00,
2013-02-10 12:02:00,28.9,14.0,30.37,WNW,292,4.0,7.5,49,0.00,,,0.00,Rainwise IP-100,2013-02-10 17:02:00,
2013-02-10 12:07:00,29.3,14.0,30.36,NW,315,2.1,7.7,48,0.00,,,0.00,Rainwise IP-100,2013-02-10 17:07:00,
2013-02-10 12:12:00,29.7,14.0,30.37,NNW,337,4.2,6.8,49,0.00,,,0.00,Rainwise IP-100,2013-02-10 17:12:00,
2013-02-10 12:17:00,29.9,14.0,30.37,WNW,292,2.8,7.5,49,0.00,,,0.00,Rainwise IP-100,2013-02-10 17:17:00,
2013-02-10 12:22:00,29.8,14.0,30.37,NNW,337,7.0,8.9,48,0.00,,,0.00,Rainwise IP-100,2013-02-10 17:22:00,
2013-02-10 12:27:00,29.7,14.0,30.37,WNW,292,2.6,7.9,47,0.00,,,0.00,Rainwise IP-100,2013-02-10 17:27:00,
2013-02-10 12:32:00,30.0,14.0,30.37,NNW,337,2.3,8.4,48,0.00,,,0.00,Rainwise IP-100,2013-02-10 17:32:00,
2013-02-10 12:37:00,30.4,14.0,30.36,NNE,22,3.7,6.8,49,0.00,,,0.00,Rainwise IP-100,2013-02-10 17:37:00,
2013-02-10 12:42:00,30.6,14.0,30.36,NW,315,1.4,10.0,49,0.00,,,0.00,Rainwise IP-100,2013-02-10 17:42:00,
2013-02-10 19:05:00,26.1,23.0,30.36,SW,225,0.0,1.9,86,0.00,,,0.00,Rainwise IP-100,2013-02-11 00:05:00,
2013-02-10 19:10:00,26.0,23.0,30.36,SW,225,0.0,1.4,86,0.00,,,0.00,Rainwise IP-100,2013-02-11 00:10:00,
2013-02-10 19:15:00,25.8,23.0,30.36,SW,225,0.0,1.2,86,0.00,,,0.00,Rainwise IP-100,2013-02-11 00:15:00,
2013-02-10 19:20:00,25.5,23.0,30.36,SW,225,0.0,0.0,86,0.00,,,0.00,Rainwise IP-100,2013-02-11 00:20:00,
2013-02-10 19:25:00,25.3,23.0,30.36,SW,225,1.4,1.4,86,0.00,,,0.00,Rainwise IP-100,2013-02-11 00:25:00,
2013-02-10 19:30:00,25.6,23.0,30.37,SW,225,0.0,1.6,87,0.00,,,0.00,Rainwise IP-100,2013-02-11 00:30:00,
2013-02-10 19:35:00,26.0,23.0,30.36,SW,225,0.0,0.0,87,0.00,,,0.00,Rainwise IP-100,2013-02-11 00:35:00,
2013-02-10 19:40:00,25.9,23.0,30.36,SW,225,0.0,1.9,87,0.00,,,0.00,Rainwise IP-100,2013-02-11 00:40:00,
2013-02-10 19:45:00,25.7,23.0,30.36,SW,225,1.4,1.4,87,0.00,,,0.00,Rainwise IP-100,2013-02-11 00:45:00,
2013-02-10 19:50:00,25.5,23.0,30.36,SW,225,0.0,1.6,87,0.00,,,0.00,Rainwise IP-100,2013-02-11 00:50:00,
2013-02-10 19:55:00,25.4,23.0,30.36,SW,225,1.2,1.4,88,0.00,,,0.00,Rainwise IP-100,2013-02-11 00:55:00,
2013-02-10 20:00:00,24.9,23.0,30.36,SW,225,1.2,1.9,88,0.00,,,0.00,Rainwise IP-100,2013-02-11 01:00:00,
2013-02-10 20:05:00,24.9,23.0,30.36,SW,225,0.0,1.4,88,0.00,,,0.00,Rainwise IP-100,2013-02-11 01:05:00,
2013-02-10 20:10:00,25.4,23.0,30.37,SW,225,0.0,1.2,89,0.00,,,0.00,Rainwise IP-100,2013-02-11 01:10:00,
2013-02-10 20:15:00,25.7,23.0,30.37,SW,225,1.2,1.2,89,0.00,,,0.00,Rainwise IP-100,2013-02-11 01:15:00,
2013-02-10 20:20:00,25.5,23.0,30.37,SW,225,0.0,1.6,89,0.00,,,0.00,Rainwise IP-100,2013-02-11 01:20:00,
2013-02-10 20:25:00,25.1,23.0,30.36,SW,225,0.0,1.2,89,0.00,,,0.00,Rainwise IP-100,2013-02-11 01:25:00,
2013-02-10 20:30:00,25.1,23.0,30.36,SW,225,0.0,0.0,89,0.00,,,0.00,Rainwise IP-100,2013-02-11 01:30:00,
2013-02-10 20:35:00,25.3,24.0,30.36,SW,225,0.0,1.6,90,0.00,,,0.00,Rainwise IP-100,2013-02-11 01:35:00,
2013-02-10 20:40:00,25.2,24.0,30.37,SW,225,0.0,0.0,90,0.00,,,0.00,Rainwise IP-100,2013-02-11 01:40:00,
2013-02-10 20:45:00,24.9,24.0,30.37,SW,225,0.0,0.0,90,0.00,,,0.00,Rainwise IP-100,2013-02-11 01:45:00,
2013-02-10 20:50:00,24.8,24.0,30.37,SW,225,0.0,1.2,90,0.00,,,0.00,Rainwise IP-100,2013-02-11 01:50:00,
2013-02-10 20:55:00,25.2,24.0,30.37,SW,225,0.0,1.4,91,0.00,,,0.00,Rainwise IP-100,2013-02-11 01:55:00,
2013-02-10 21:00:00,25.5,24.0,30.37,SW,225,1.2,1.9,91,0.00,,,0.00,Rainwise IP-100,2013-02-11 02:00:00,
2013-02-10 21:05:00,25.2,24.0,30.37,SW,225,0.0,1.6,91,0.00,,,0.00,Rainwise IP-100,2013-02-11 02:05:00,
2013-02-10 21:10:00,25.3,24.0,30.36,WNW,292,0.0,3.0,90,0.00,,,0.00,Rainwise IP-100,2013-02-11 02:10:00,
2013-02-10 21:15:00,25.6,24.0,30.36,West,270,1.9,1.9,90,0.00,,,0.00,Rainwise IP-100,2013-02-11 02:15:00,
2013-02-10 21:20:00,25.2,24.0,30.36,West,270,0.0,1.9,90,0.00,,,0.00,Rainwise IP-100,2013-02-11 02:20:00,
2013-02-10 21:25:00,24.8,24.0,30.36,WSW,247,1.6,2.3,91,0.00,,,0.00,Rainwise IP-100,2013-02-11 02:25:00,
2013-02-10 21:30:00,24.9,24.0,30.36,SSW,202,1.6,2.6,91,0.00,,,0.00,Rainwise IP-100,2013-02-11 02:30:00,
2013-02-10 21:35:00,24.8,24.0,30.36,SSW,202,0.0,2.1,91,0.00,,,0.00,Rainwise IP-100,2013-02-11 02:35:00,
2013-02-10 21:40:00,24.8,24.0,30.36,WSW,247,0.0,0.0,91,0.00,,,0.00,Rainwise IP-100,2013-02-11 02:40:00,
2013-02-10 21:45:00,25.1,24.0,30.36,WNW,292,0.0,1.2,92,0.00,,,0.00,Rainwise IP-100,2013-02-11 02:45:00,
2013-02-10 21:48:00,25.0,24.0,30.36,WNW,292,0.0,1.2,91,0.00,,,0.00,Rainwise IP-100,2013-02-11 02:48:00,
2013-02-10 21:53:00,24.7,24.0,30.36,WNW,292,0.0,1.2,91,0.00,,,0.00,Rainwise IP-100,2013-02-11 02:53:00,
2013-02-10 21:58:00,24.5,24.0,30.36,WSW,247,1.2,4.4,91,0.00,,,0.00,Rainwise IP-100,2013-02-11 02:58:00,
2013-02-10 22:03:00,24.4,23.0,30.36,WSW,247,1.4,3.0,92,0.00,,,0.00,Rainwise IP-100,2013-02-11 03:03:00,
2013-02-10 22:08:00,24.3,23.0,30.35,WSW,247,0.0,2.1,92,0.00,,,0.00,Rainwise IP-100,2013-02-11 03:08:00,
2013-02-10 22:13:00,24.1,23.0,30.36,WSW,247,1.2,1.2,92,0.00,,,0.00,Rainwise IP-100,2013-02-11 03:13:00,
2013-02-10 22:18:00,23.9,23.0,30.35,WSW,247,0.0,1.4,92,0.00,,,0.00,Rainwise IP-100,2013-02-11 03:18:00,
2013-02-10 22:23:00,23.7,23.0,30.35,WSW,247,0.0,1.2,93,0.00,,,0.00,Rainwise IP-100,2013-02-11 03:23:00,
2013-02-10 22:28:00,23.2,21.0,30.35,SW,225,0.0,2.8,93,0.00,,,0.00,Rainwise IP-100,2013-02-11 03:28:00,
2013-02-10 22:33:00,23.3,21.0,30.35,SW,225,0.0,1.9,93,0.00,,,0.00,Rainwise IP-100,2013-02-11 03:33:00,
2013-02-10 22:38:00,23.4,21.0,30.36,SW,225,0.0,0.0,93,0.00,,,0.00,Rainwise IP-100,2013-02-11 03:38:00,
2013-02-10 22:43:00,23.2,21.0,30.36,SW,225,0.0,0.0,93,0.00,,,0.00,Rainwise IP-100,2013-02-11 03:43:00,
2013-02-10 22:48:00,23.0,21.0,30.35,SW,225,0.0,0.0,93,0.00,,,0.00,Rainwise IP-100,2013-02-11 03:48:00,
2013-02-10 22:53:00,22.8,21.0,30.35,SW,225,0.0,0.0,94,0.00,,,0.00,Rainwise IP-100,2013-02-11 03:53:00,
2013-02-10 22:58:00,22.8,21.0,30.35,SW,225,0.0,0.0,94,0.00,,,0.00,Rainwise IP-100,2013-02-11 03:58:00,
2013-02-10 23:03:00,22.8,21.0,30.35,SW,225,0.0,0.0,94,0.00,,,0.00,Rainwise IP-100,2013-02-11 04:03:00,
2013-02-10 23:08:00,22.9,21.0,30.35,West,270,0.0,2.6,94,0.00,,,0.00,Rainwise IP-100,2013-02-11 04:08:00,
2013-02-10 23:13:00,22.9,21.0,30.35,West,270,0.0,0.0,93,0.00,,,0.00,Rainwise IP-100,2013-02-11 04:13:00,
2013-02-10 23:18:00,22.5,21.0,30.36,WSW,247,0.0,1.2,93,0.00,,,0.00,Rainwise IP-100,2013-02-11 04:18:00,
2013-02-10 23:23:00,22.1,21.0,30.35,WSW,247,0.0,1.4,93,0.00,,,0.00,Rainwise IP-100,2013-02-11 04:23:00,
2013-02-10 23:28:00,22.1,21.0,30.35,WSW,247,0.0,1.4,93,0.00,,,0.00,Rainwise IP-100,2013-02-11 04:28:00,
2013-02-10 23:33:00,21.9,21.0,30.36,WSW,247,0.0,1.6,93,0.00,,,0.00,Rainwise IP-100,2013-02-11 04:33:00,
2013-02-10 23:38:00,21.8,21.0,30.36,WSW,247,0.0,0.0,92,0.00,,,0.00,Rainwise IP-100,2013-02-11 04:38:00,
2013-02-10 23:43:00,21.9,21.0,30.35,WSW,247,0.0,1.2,92,0.00,,,0.00,Rainwise IP-100,2013-02-11 04:43:00,
2013-02-10 23:48:00,22.0,21.0,30.35,WSW,247,0.0,0.0,91,0.00,,,0.00,Rainwise IP-100,2013-02-11 04:48:00,
2013-02-10 23:53:00,22.3,21.0,30.35,West,270,0.0,2.8,90,0.00,,,0.00,Rainwise IP-100,2013-02-11 04:53:00,
2013-02-10 23:58:00,22.7,21.0,30.35,West,270,0.0,3.3,90,0.00,,,0.00,Rainwise IP-100,2013-02-11 04:58:00,